Seattle, WA
on Sunday, December 30, 2012

Sunday
Previous Day Next Day
Daily Summary
 ActualAverageRecord
Temperature
Mean Temperature °F 41°F  
Max Temperature 40°F 45°F 56°F (1958)
Min Temperature 32°F 36°F 6°F (1968)
Degree Days
Heating Degree Days 29 24  
Month to date heating degree days 693 733  
Since 1 July heating degree days 1720 1916  
Cooling Degree Days 0 0  
Month to date cooling degree days 0 0  
Year to date cooling degree days 177 189  
Moisture
Dew Point 33°F   
Average Humidity 88    
Maximum Humidity 96    
Minimum Humidity 79    
Precipitation
Precipitation 0.00 in 0.16 in 1.06 in (1980)
Month to date precipitation 6.85 5.19  
Year to date precipitation 48.26 37.33  
Snow
Snow 0.00 in in 3.70 in (1968)
Month to date snowfall 0.6  
Since 1 July snowfall 0.6  
Snow Depth 0.00 in   
Wind
Wind Speed 4 mph   
Max Wind Speed 9 mph   
Max Gust Speed 12 mph   
Visibility 3 miles   
Events Fog   

Key: T is trace of precipitation, MM is missing value
Source: NWS Daily Summary
Time(PST)TemperatureDew PointHumidity Pressure Visibility Wind DirectionWind SpeedGust SpeedPrecipitationEvents Conditions
12:10 AM 39.2°F 35.6°F 87% 30.22 in 6.0 miles NE 4.6 mph - N/A   Scattered Clouds
12:53 AM 36.0°F 34.0°F 93% 30.25 in 5.0 miles WNW 3.5 mph - N/A   Scattered Clouds
1:53 AM 35.1°F 33.1°F 92% 30.26 in 3.0 miles NNW 4.6 mph - N/A   Scattered Clouds
2:53 AM 33.1°F 30.9°F 92% 30.27 in 3.0 miles North 4.6 mph - N/A   Scattered Clouds
3:53 AM 35.6°F 33.8°F 93% 30.26 in 3.0 miles ESE 4.6 mph - N/A   Scattered Clouds
3:55 AM 35.6°F 33.8°F 93% 30.26 in 0.5 miles ESE 4.6 mph - N/A   Mostly Cloudy
4:07 AM 35.6°F 33.8°F 93% 30.26 in 0.5 miles East 5.8 mph - N/A Fog Fog
4:21 AM 35.6°F 33.8°F 93% 30.26 in 0.5 miles ESE 5.8 mph - N/A Fog Fog
4:31 AM 33.8°F 32.0°F 93% 30.26 in 0.2 miles ESE 5.8 mph - N/A Fog Fog
4:53 AM 34.0°F 32.0°F 92% 30.30 in 0.2 miles East 5.8 mph - N/A Fog Fog
5:45 AM 33.8°F 32.0°F 93% 30.27 in 0.2 miles East 4.6 mph - N/A Fog Fog
5:53 AM 33.1°F 32.0°F 96% 30.30 in 0.2 miles ENE 6.9 mph - N/A Fog Fog
6:31 AM 33.8°F 30.2°F 87% 30.28 in 0.2 miles ENE 6.9 mph - N/A Fog Fog
6:53 AM 34.0°F 32.0°F 92% 30.31 in 0.2 miles East 6.9 mph - N/A Fog Fog
7:08 AM 33.8°F 32.0°F 93% 30.28 in 0.2 miles ENE 5.8 mph - N/A Fog Fog
7:53 AM 34.0°F 32.0°F 92% 30.31 in 0.2 miles Variable 3.5 mph - N/A Fog Fog
8:13 AM 33.8°F 32.0°F 93% 30.28 in 0.2 miles East 5.8 mph - N/A Fog Fog
8:53 AM 34.0°F 32.0°F 92% 30.32 in 0.2 miles East 6.9 mph - N/A Fog Fog
9:17 AM 35.6°F 33.8°F 93% 30.30 in 0.2 miles SE 4.6 mph - N/A Fog Fog
9:29 AM 35.6°F 33.8°F 93% 30.31 in 0.2 miles Calm Calm - N/A Fog Fog
9:36 AM 35.6°F 33.8°F 93% 30.31 in 0.5 miles Calm Calm - N/A   Overcast
9:53 AM 36.0°F 33.1°F 89% 30.34 in 0.5 miles Calm Calm - N/A   Overcast
10:30 AM 37.4°F 33.8°F 87% 30.31 in 1.5 miles Calm Calm - N/A   Overcast
10:40 AM 37.4°F 33.8°F 87% 30.31 in 1.5 miles Calm Calm - N/A   Overcast
10:53 AM 37.0°F 34.0°F 89% 30.34 in 7.0 miles Calm Calm - N/A   Mostly Cloudy
11:53 AM 37.9°F 34.0°F 86% 30.33 in 8.0 miles Calm Calm - N/A   Overcast
12:53 PM 39.0°F 35.1°F 86% 30.32 in 9.0 miles Calm Calm - N/A   Overcast
1:53 PM 39.9°F 35.1°F 83% 30.32 in 9.0 miles Calm Calm - N/A   Overcast
2:20 PM 39.2°F 33.8°F 81% 30.29 in 10.0 miles Calm Calm - N/A   Mostly Cloudy
2:53 PM 39.9°F 34.0°F 79% 30.32 in 10.0 miles Calm Calm - N/A   Mostly Cloudy
3:10 PM 39.2°F 33.8°F 81% 30.29 in 10.0 miles Calm Calm - N/A   Overcast
3:53 PM 39.9°F 34.0°F 79% 30.32 in 10.0 miles North 4.6 mph - N/A   Overcast
4:53 PM 37.0°F 33.1°F 86% 30.32 in 10.0 miles NNE 5.8 mph - N/A   Scattered Clouds
5:53 PM 36.0°F 32.0°F 86% 30.31 in 8.0 miles NE 6.9 mph - N/A   Scattered Clouds
6:53 PM 35.1°F 32.0°F 89% 30.29 in 10.0 miles ENE 6.9 mph - N/A   Clear
7:53 PM 34.0°F 30.9°F 89% 30.30 in 10.0 miles NNE 4.6 mph - N/A   Clear
8:14 PM 35.6°F 32.0°F 87% 30.27 in 3.0 miles NE 6.9 mph - N/A   Scattered Clouds
8:20 PM 33.8°F 30.2°F 87% 30.27 in 0.8 miles NE 8.1 mph - N/A   Mostly Cloudy
8:37 PM 33.8°F 32.0°F 93% 30.27 in 0.2 miles NE 8.1 mph - N/A Fog Fog
8:53 PM 34.0°F 32.0°F 92% 30.30 in 0.2 miles ENE 8.1 mph - N/A Fog Fog
9:53 PM 34.0°F 32.0°F 92% 30.32 in 0.2 miles NE 4.6 mph - N/A Fog Fog
10:53 PM 33.1°F 30.9°F 92% 30.32 in 0.2 miles ENE 4.6 mph - N/A Fog Fog
11:53 PM 32.0°F 30.0°F 92% 30.31 in 0.2 miles East 3.5 mph - N/A Fog Fog
11:55 PM 32.0°F 30.2°F 93% 30.28 in 0.2 miles East 3.5 mph - N/A Fog Fog
Moon Phase
Dec. 30 Jan. 04 Jan. 11 Jan. 18 Jan. 26
Sunrise:07:56 AM (PST) Moon Rise:07:15 PM (PST)12/30
Sunset:04:27 PM (PST) Moon Set:08:58 AM (PST)12/30

Copyright © 2014 The Weather Underground, Inc.